RYR66LN EIDW-EGPH

Flight info

Callsign RYR66LN
Flight time 0h 39m
Altitude 25000
Route ROTEV8E ROTEV P600 TUNSO
Aircraft B738/M-SDE2E3FGHIRWXY/LB1

Departure

Time 2026-04-21 10:54
Airport Dublin Airport (EIDW)

Arrival

Time 2026-04-21 11:34
Airport Edinburgh Airport (EGPH)
Time Latitude Longitude Altitude Speed Heading
2026-04-21 10:46 53.42438 -6.26037 216 ft 0 kts 225°
2026-04-21 10:48 53.42449 -6.26019 213 ft 4 kts 222°
2026-04-21 10:48 53.42470 -6.25990 213 ft 4 kts 210°
2026-04-21 10:48 53.42492 -6.25976 219 ft 4 kts 164°
2026-04-21 10:48 53.42501 -6.25984 213 ft 0 kts 96°
2026-04-21 10:50 53.42501 -6.25981 214 ft 1 kts 96°
2026-04-21 10:50 53.42499 -6.25957 217 ft 3 kts 96°
2026-04-21 10:51 53.42487 -6.25905 213 ft 7 kts 126°
2026-04-21 10:51 53.42433 -6.25886 210 ft 11 kts 206°
2026-04-21 10:51 53.42350 -6.26010 214 ft 20 kts 224°
2026-04-21 10:51 53.42271 -6.26254 214 ft 29 kts 265°
2026-04-21 10:52 53.42284 -6.26621 214 ft 33 kts 275°
2026-04-21 10:52 53.42298 -6.26874 210 ft 33 kts 275°
2026-04-21 10:52 53.42324 -6.27364 213 ft 31 kts 276°
2026-04-21 10:52 53.42347 -6.27717 210 ft 30 kts 274°
2026-04-21 10:53 53.42363 -6.28053 212 ft 28 kts 275°
2026-04-21 10:53 53.42373 -6.28250 210 ft 16 kts 269°
2026-04-21 10:53 53.42256 -6.28250 215 ft 16 kts 135°
2026-04-21 10:53 53.42214 -6.28153 215 ft 16 kts 118°
2026-04-21 10:54 53.42175 -6.27764 212 ft 67 kts 95°
2026-04-21 10:54 53.42114 -6.26607 214 ft 129 kts 96°
2026-04-21 10:54 53.42002 -6.25037 786 ft 134 kts 96°
2026-04-21 10:54 53.41899 -6.23431 1477 ft 139 kts 94°
2026-04-21 10:55 53.41812 -6.21702 2002 ft 166 kts 94°
2026-04-21 10:55 53.41704 -6.19582 2316 ft 197 kts 94°
2026-04-21 10:55 53.41579 -6.17194 2718 ft 218 kts 94°
2026-04-21 10:55 53.41439 -6.14567 3320 ft 232 kts 95°
2026-04-21 10:56 53.41291 -6.11868 4279 ft 234 kts 95°
2026-04-21 10:56 53.41143 -6.09170 5209 ft 238 kts 95°
2026-04-21 10:56 53.40988 -6.06376 6108 ft 240 kts 95°
2026-04-21 10:56 53.40974 -6.03550 6969 ft 246 kts 78°
2026-04-21 10:57 53.41719 -6.00956 7783 ft 256 kts 54°
2026-04-21 10:57 53.43147 -5.99072 8536 ft 271 kts 29°
2026-04-21 10:57 53.45018 -5.98294 9178 ft 286 kts
2026-04-21 10:57 53.47025 -5.98324 9417 ft 290 kts
2026-04-21 10:58 53.49049 -5.98502 9451 ft 294 kts
2026-04-21 10:58 53.51106 -5.98662 10162 ft 297 kts
2026-04-21 10:58 53.53186 -5.98878 10865 ft 307 kts 356°
2026-04-21 10:58 53.55382 -5.99498 11076 ft 333 kts 352°
2026-04-21 10:59 53.57735 -6.00323 11261 ft 357 kts 351°
2026-04-21 10:59 53.60226 -6.01212 11656 ft 372 kts 351°
2026-04-21 10:59 53.62764 -6.02093 12487 ft 373 kts 351°
2026-04-21 10:59 53.65324 -6.02952 13210 ft 379 kts 351°
2026-04-21 11:00 53.67934 -6.03805 13887 ft 386 kts 352°
2026-04-21 11:00 53.70590 -6.04664 14677 ft 388 kts 351°
2026-04-21 11:00 53.73238 -6.05474 15634 ft 385 kts 354°
2026-04-21 11:00 53.75916 -6.05808 16413 ft 387 kts 360°
2026-04-21 11:01 53.78627 -6.05861 17159 ft 391 kts
2026-04-21 11:01 53.81311 -6.05858 17993 ft 392 kts
2026-04-21 11:01 53.84048 -6.05878 18783 ft 394 kts 359°
2026-04-21 11:02 53.89604 -6.06036 19940 ft 404 kts 358°
2026-04-21 11:02 53.92423 -6.06151 20621 ft 405 kts 356°
2026-04-21 11:02 53.95253 -6.06273 21317 ft 407 kts 355°
2026-04-21 11:02 53.98090 -6.06396 21958 ft 409 kts 355°
2026-04-21 11:03 54.00950 -6.06513 22553 ft 413 kts 356°
2026-04-21 11:03 54.03828 -6.05895 23049 ft 426 kts 15°
2026-04-21 11:03 54.06566 -6.03864 23660 ft 432 kts 22°
2026-04-21 11:03 54.09276 -6.01605 24159 ft 436 kts 22°
2026-04-21 11:04 54.12007 -5.99302 24599 ft 440 kts 23°
2026-04-21 11:04 54.14759 -5.96988 25061 ft 442 kts 22°
2026-04-21 11:04 54.17494 -5.94705 25435 ft 445 kts 22°
2026-04-21 11:04 54.20297 -5.92380 25450 ft 451 kts 22°
2026-04-21 11:05 54.23138 -5.90037 25471 ft 456 kts 22°
2026-04-21 11:05 54.26000 -5.87677 25464 ft 456 kts 22°
2026-04-21 11:05 54.28857 -5.85318 25461 ft 454 kts 22°
2026-04-21 11:05 54.31701 -5.82969 25467 ft 453 kts 22°
2026-04-21 11:06 54.34540 -5.80619 25470 ft 452 kts 22°
2026-04-21 11:06 54.37376 -5.78269 25481 ft 452 kts 23°
2026-04-21 11:06 54.40208 -5.75918 25482 ft 452 kts 23°
2026-04-21 11:06 54.43049 -5.73556 25481 ft 453 kts 23°
2026-04-21 11:07 54.45885 -5.71194 25479 ft 453 kts 23°
2026-04-21 11:07 54.48722 -5.68827 25480 ft 453 kts 23°
2026-04-21 11:07 54.51522 -5.66488 25480 ft 453 kts 23°
2026-04-21 11:07 54.54361 -5.64112 25482 ft 454 kts 23°
2026-04-21 11:08 54.57201 -5.61733 25473 ft 454 kts 23°
2026-04-21 11:08 54.59969 -5.59067 25471 ft 457 kts 31°
2026-04-21 11:08 54.62465 -5.55658 25482 ft 459 kts 39°
2026-04-21 11:08 54.64845 -5.51988 25494 ft 458 kts 42°
2026-04-21 11:09 54.67203 -5.48301 25477 ft 457 kts 42°
2026-04-21 11:09 54.69565 -5.44624 25476 ft 456 kts 41°
2026-04-21 11:09 54.71926 -5.40981 25473 ft 455 kts 42°
2026-04-21 11:09 54.74289 -5.37365 25479 ft 451 kts 43°
2026-04-21 11:10 54.76638 -5.33777 25469 ft 447 kts 43°
2026-04-21 11:10 54.78945 -5.30257 25131 ft 438 kts 44°
2026-04-21 11:10 54.81214 -5.26788 24627 ft 431 kts 43°
2026-04-21 11:10 54.83446 -5.23369 24063 ft 426 kts 44°
2026-04-21 11:11 54.85651 -5.19983 23389 ft 421 kts 44°
2026-04-21 11:11 54.87862 -5.16684 22753 ft 417 kts 40°
2026-04-21 11:11 54.90263 -5.13998 22116 ft 416 kts 31°
2026-04-21 11:11 54.92883 -5.11768 21523 ft 412 kts 30°
2026-04-21 11:12 54.95454 -5.09626 20956 ft 407 kts 30°
2026-04-21 11:12 54.97990 -5.07488 20389 ft 403 kts 30°
2026-04-21 11:12 55.00463 -5.05370 19842 ft 399 kts 31°
2026-04-21 11:12 55.02942 -5.03223 19292 ft 395 kts 31°
2026-04-21 11:13 55.05394 -5.01088 18735 ft 392 kts 31°
2026-04-21 11:13 55.07823 -4.98969 18142 ft 389 kts 31°
2026-04-21 11:13 55.10130 -4.96614 17556 ft 378 kts 44°
2026-04-21 11:13 55.11800 -4.93244 17327 ft 358 kts 62°
2026-04-21 11:14 55.12882 -4.89414 17134 ft 351 kts 70°
2026-04-21 11:14 55.13863 -4.85432 16940 ft 361 kts 71°
2026-04-21 11:14 55.14833 -4.81419 16742 ft 364 kts 71°
2026-04-21 11:14 55.15818 -4.77348 16531 ft 362 kts 70°
2026-04-21 11:15 55.16804 -4.73298 16261 ft 362 kts 70°
2026-04-21 11:15 55.17790 -4.69266 15993 ft 359 kts 70°
2026-04-21 11:15 55.18775 -4.65250 15766 ft 359 kts 70°
2026-04-21 11:15 55.19762 -4.61233 15564 ft 359 kts 70°
2026-04-21 11:16 55.20746 -4.57226 15333 ft 358 kts 70°
2026-04-21 11:16 55.21728 -4.53230 15113 ft 357 kts 70°
2026-04-21 11:16 55.22706 -4.49240 14897 ft 356 kts 70°
2026-04-21 11:16 55.23682 -4.45251 14680 ft 356 kts 70°
2026-04-21 11:17 55.24658 -4.41258 14457 ft 355 kts 70°
2026-04-21 11:17 55.25629 -4.37280 14227 ft 355 kts 70°
2026-04-21 11:17 55.26596 -4.33309 13976 ft 352 kts 70°
2026-04-21 11:17 55.27552 -4.29380 13705 ft 349 kts 70°
2026-04-21 11:18 55.28489 -4.25518 13435 ft 348 kts 70°
2026-04-21 11:18 55.29433 -4.21619 13158 ft 347 kts 70°
2026-04-21 11:18 55.30373 -4.17733 12907 ft 345 kts 70°
2026-04-21 11:18 55.31308 -4.13856 12657 ft 344 kts 70°
2026-04-21 11:19 55.32239 -4.09993 12385 ft 343 kts 70°
2026-04-21 11:19 55.33164 -4.06144 12125 ft 341 kts 70°
2026-04-21 11:19 55.34085 -4.02309 11880 ft 340 kts 70°
2026-04-21 11:19 55.35003 -3.98476 11620 ft 339 kts 70°
2026-04-21 11:20 55.35916 -3.94663 11363 ft 338 kts 70°
2026-04-21 11:20 55.36823 -3.90863 11102 ft 336 kts 70°
2026-04-21 11:20 55.37722 -3.87090 10861 ft 334 kts 70°
2026-04-21 11:20 55.38616 -3.83332 10606 ft 331 kts 70°
2026-04-21 11:21 55.39501 -3.79607 10358 ft 328 kts 70°
2026-04-21 11:21 55.40362 -3.75980 10088 ft 320 kts 70°
2026-04-21 11:21 55.41236 -3.72439 9848 ft 311 kts 65°
2026-04-21 11:21 55.42678 -3.69667 9749 ft 309 kts 37°
2026-04-21 11:22 55.44595 -3.68064 9681 ft 302 kts 22°
2026-04-21 11:22 55.46630 -3.67383 9567 ft 292 kts 11°
2026-04-21 11:22 55.48612 -3.67048 9421 ft 279 kts
2026-04-21 11:22 55.50536 -3.66763 9060 ft 275 kts
2026-04-21 11:23 55.52445 -3.66472 8661 ft 274 kts 10°
2026-04-21 11:23 55.54336 -3.66172 8288 ft 272 kts 10°
2026-04-21 11:23 55.56207 -3.65866 8009 ft 268 kts 10°
2026-04-21 11:23 55.58053 -3.65557 7796 ft 266 kts 10°
2026-04-21 11:24 55.59893 -3.65245 7614 ft 265 kts 10°
2026-04-21 11:24 55.61739 -3.64927 7356 ft 268 kts 10°
2026-04-21 11:24 55.63608 -3.64605 7072 ft 271 kts 10°
2026-04-21 11:24 55.65483 -3.64282 6748 ft 270 kts 10°
2026-04-21 11:25 55.67322 -3.63970 6376 ft 267 kts
2026-04-21 11:25 55.69169 -3.64390 5976 ft 274 kts 341°
2026-04-21 11:25 55.70794 -3.66129 5645 ft 273 kts 324°
2026-04-21 11:25 55.72252 -3.68268 5289 ft 271 kts 322°
2026-04-21 11:26 55.73683 -3.70437 5010 ft 269 kts 323°
2026-04-21 11:26 55.75115 -3.72580 5003 ft 269 kts 323°
2026-04-21 11:26 55.76511 -3.74797 4984 ft 270 kts 320°
2026-04-21 11:26 55.77897 -3.77045 4987 ft 269 kts 323°
2026-04-21 11:27 55.79443 -3.78813 4962 ft 259 kts 349°
2026-04-21 11:27 55.81159 -3.78795 4988 ft 242 kts 26°
2026-04-21 11:27 55.82435 -3.77033 4977 ft 233 kts 62°
2026-04-21 11:27 55.83010 -3.74370 4794 ft 237 kts 73°
2026-04-21 11:28 55.83626 -3.71675 4466 ft 229 kts 68°
2026-04-21 11:28 55.84293 -3.69210 4162 ft 212 kts 64°
2026-04-21 11:28 55.84988 -3.67003 3885 ft 196 kts 62°
2026-04-21 11:28 55.85657 -3.64986 3632 ft 182 kts 61°
2026-04-21 11:29 55.86279 -3.63134 3382 ft 167 kts 61°
2026-04-21 11:29 55.86852 -3.61430 3174 ft 153 kts 61°
2026-04-21 11:29 55.87379 -3.59861 2965 ft 143 kts 62°
2026-04-21 11:29 55.87870 -3.58399 2763 ft 134 kts 62°
2026-04-21 11:30 55.88328 -3.57035 2624 ft 126 kts 62°
2026-04-21 11:30 55.88787 -3.55667 2423 ft 129 kts 61°
2026-04-21 11:30 55.89246 -3.54303 2239 ft 127 kts 61°
2026-04-21 11:30 55.89696 -3.52966 2055 ft 124 kts 62°
2026-04-21 11:31 55.90137 -3.51655 1878 ft 123 kts 61°
2026-04-21 11:31 55.90586 -3.50321 1707 ft 126 kts 60°
2026-04-21 11:31 55.91041 -3.48971 1533 ft 127 kts 61°
2026-04-21 11:31 55.91496 -3.47623 1358 ft 128 kts 62°
2026-04-21 11:32 55.91955 -3.46260 1164 ft 127 kts 62°
2026-04-21 11:32 55.92402 -3.44929 972 ft 126 kts 61°
2026-04-21 11:32 55.92852 -3.43601 835 ft 122 kts 61°
2026-04-21 11:32 55.93290 -3.42305 659 ft 123 kts 60°
2026-04-21 11:33 55.93722 -3.41022 531 ft 122 kts 60°
2026-04-21 11:33 55.94171 -3.39692 310 ft 125 kts 59°
2026-04-21 11:33 55.94608 -3.38406 132 ft 118 kts 59°
2026-04-21 11:33 55.94981 -3.37303 110 ft 78 kts 59°
2026-04-21 11:34 55.95168 -3.36754 111 ft 40 kts 58°
2026-04-21 11:34 55.95249 -3.36436 110 ft 16 kts 110°
2026-04-21 11:34 55.95195 -3.36352 113 ft 6 kts 149°
2026-04-21 11:34 55.95154 -3.36314 113 ft 8 kts 165°
2026-04-21 11:35 55.95093 -3.36406 113 ft 15 kts 237°
2026-04-21 11:35 55.95036 -3.36574 113 ft 16 kts 239°
2026-04-21 11:35 55.94991 -3.36705 112 ft 10 kts 238°
2026-04-21 11:35 55.94978 -3.36743 113 ft 0 kts 238°
2026-04-21 11:37 55.94974 -3.36753 112 ft 3 kts 238°
2026-04-21 11:37 55.94950 -3.36814 114 ft 9 kts 218°
2026-04-21 11:38 55.94899 -3.36807 115 ft 2 kts 156°
2026-04-21 11:38 55.94890 -3.36799 115 ft 3 kts 154°
2026-04-21 11:38 55.94844 -3.36781 115 ft 10 kts 173°
2026-04-21 11:38 55.94780 -3.36767 115 ft 10 kts 158°
2026-04-21 11:39 55.94695 -3.36738 115 ft 14 kts 179°
2026-04-21 11:39 55.94635 -3.36737 115 ft 8 kts 179°
2026-04-21 11:39 55.94604 -3.36735 115 ft 5 kts 178°
2026-04-21 11:39 55.94572 -3.36677 115 ft 9 kts 99°
2026-04-21 11:40 55.94572 -3.36627 115 ft 2 kts 90°
2026-04-21 11:40 55.94572 -3.36622 115 ft 0 kts 90°